When you browse on this site, cookies collect data to enhance your experience and personalize the content and advertising you see.
Visit our Privacy Policy to learn more. By continuing to use the site, you agree to this use of cookies and data.
  • In France
  • List of Countries
  • For 7 days
  • Water Temperature
  • Satellite Maps
  • Weather Map
  • Weather Widgets
  • user-avatar
    Login

    Hourly Weather Razgrad

    Today, 23 March, Saturday

    Time Temperature Precipitation Wind Pressure Humidity
    00:00 +9°C° 0 mm 1 mps 748 mmHg 64%
    01:00 +9°C° 0 mm 1 mps 748 mmHg 65%
    02:00 +9°C° 0 mm 1 mps 748 mmHg 65%
    03:00 +8°C° 0 mm 1 mps 748 mmHg 67%
    04:00 +8°C° 0 mm 1 mps 748 mmHg 69%
    05:00 +7°C° 0 mm 0 mps 748 mmHg 71%
    06:00 +8°C° 0 mm 1 mps 748 mmHg 70%
    07:00 +9°C° 0 mm 1 mps 748 mmHg 69%
    08:00 +11°C° 0 mm 1 mps 748 mmHg 65%
    09:00 +12°C° 0 mm 1 mps 747 mmHg 62%
    10:00 +13°C° 0 mm 2 mps 747 mmHg 58%
    11:00 +12°C° 0 mm 3 mps 747 mmHg 55%
    12:00 +13°C° 0 mm 3 mps 747 mmHg 54%
    13:00 +13°C° 0 mm 3 mps 747 mmHg 53%
    14:00 +15°C° 0 mm 2 mps 746 mmHg 50%
    15:00 +14°C° 0 mm 3 mps 746 mmHg 51%
    16:00 +13°C° 0 mm 3 mps 746 mmHg 53%
    17:00 +12°C° 0 mm 4 mps 746 mmHg 54%
    18:00 +11°C° 0 mm 4 mps 746 mmHg 52%
    19:00 +10°C° 0 mm 3 mps 746 mmHg 49%
    20:00 +9°C° 0 mm 3 mps 747 mmHg 47%
    21:00 +9°C° 0 mm 3 mps 747 mmHg 43%
    22:00 +9°C° 0 mm 2 mps 747 mmHg 38%
    23:00 +9°C° 0 mm 2 mps 748 mmHg 34%

    Tomorrow, 24 March, Sunday

    Time Temperature Precipitation Wind Pressure Humidity
    00:00 +8°C° 0 mm 2 mps 748 mmHg 36%
    01:00 +8°C° 0 mm 1 mps 747 mmHg 38%
    02:00 +7°C° 0 mm 1 mps 747 mmHg 40%
    03:00 +7°C° 0 mm 1 mps 747 mmHg 40%
    04:00 +5°C° 0 mm 0 mps 747 mmHg 41%
    05:00 +5°C° 0 mm 0 mps 747 mmHg 42%
    06:00 +5°C° 0 mm 0 mps 747 mmHg 41%
    07:00 +6°C° 0 mm 0 mps 747 mmHg 40%
    08:00 +7°C° 0 mm 0 mps 747 mmHg 39%
    09:00 +9°C° 0 mm 1 mps 747 mmHg 37%
    10:00 +11°C° 0 mm 1 mps 747 mmHg 35%
    11:00 +12°C° 0 mm 2 mps 747 mmHg 32%
    12:00 +13°C° 0 mm 2 mps 746 mmHg 32%
    13:00 +14°C° 0 mm 2 mps 746 mmHg 31%
    14:00 +15°C° 0 mm 2 mps 746 mmHg 30%
    15:00 +15°C° 0 mm 2 mps 745 mmHg 31%
    16:00 +15°C° 0 mm 2 mps 745 mmHg 33%
    17:00 +15°C° 0 mm 2 mps 744 mmHg 34%
    18:00 +13°C° 0 mm 2 mps 744 mmHg 38%
    19:00 +12°C° 0 mm 1 mps 744 mmHg 42%
    20:00 +10°C° 0 mm 1 mps 744 mmHg 46%
    21:00 +10°C° 0 mm 1 mps 744 mmHg 47%
    22:00 +10°C° 0 mm 1 mps 744 mmHg 48%
    23:00 +9°C° 0 mm 1 mps 744 mmHg 48%

    Day after tomorrow, 25 March, Monday

    Time Temperature Precipitation Wind Pressure Humidity
    00:00 +9°C° 0 mm 1 mps 744 mmHg 49%
    01:00 +9°C° 0 mm 1 mps 744 mmHg 50%
    02:00 +8°C° 0 mm 1 mps 744 mmHg 51%
    03:00 +7°C° 0 mm 2 mps 743 mmHg 52%
    04:00 +7°C° 0 mm 2 mps 743 mmHg 53%
    05:00 +6°C° 0 mm 2 mps 742 mmHg 54%
    06:00 +7°C° 0 mm 2 mps 742 mmHg 53%
    07:00 +8°C° 0 mm 2 mps 742 mmHg 52%
    08:00 +9°C° 0 mm 2 mps 741 mmHg 50%
    09:00 +13°C° 0 mm 2 mps 741 mmHg 44%
    10:00 +15°C° 0 mm 2 mps 741 mmHg 38%
    11:00 +17°C° 0 mm 3 mps 741 mmHg 32%
    12:00 +18°C° 0 mm 3 mps 740 mmHg 30%
    13:00 +19°C° 0 mm 3 mps 739 mmHg 27%
    14:00 +20°C° 0 mm 3 mps 739 mmHg 25%
    15:00 +20°C° 0 mm 2 mps 738 mmHg 27%
    16:00 +19°C° 0 mm 2 mps 738 mmHg 29%
    17:00 +19°C° 0 mm 2 mps 737 mmHg 31%
    18:00 +17°C° 0 mm 2 mps 737 mmHg 35%
    19:00 +15°C° 0 mm 2 mps 737 mmHg 40%
    20:00 +13°C° 0 mm 1 mps 737 mmHg 45%
    21:00 +13°C° 0 mm 2 mps 737 mmHg 48%
    22:00 +12°C° 0 mm 2 mps 737 mmHg 52%
    23:00 +10°C° 0 mm 2 mps 737 mmHg 55%

    26 March, Tuesday

    Time Temperature Precipitation Wind Pressure Humidity
    00:00 +10°C° 0 mm 2 mps 737 mmHg 56%
    01:00 +9°C° 0 mm 2 mps 737 mmHg 56%
    02:00 +9°C° 0 mm 2 mps 737 mmHg 57%
    03:00 +9°C° 0 mm 2 mps 737 mmHg 57%
    04:00 +9°C° 0 mm 2 mps 737 mmHg 57%
    05:00 +9°C° 0 mm 1 mps 737 mmHg 57%
    06:00 +10°C° 0 mm 1 mps 738 mmHg 55%
    07:00 +11°C° 0 mm 1 mps 738 mmHg 54%
    08:00 +12°C° 0 mm 1 mps 738 mmHg 53%
    09:00 +13°C° 0 mm 2 mps 739 mmHg 54%
    10:00 +14°C° 0 mm 4 mps 739 mmHg 56%
    11:00 +15°C° 0 mm 5 mps 739 mmHg 57%
    12:00 +15°C° 0 mm 5 mps 739 mmHg 56%
    13:00 +15°C° 0 mm 5 mps 740 mmHg 54%
    14:00 +16°C° 0 mm 5 mps 740 mmHg 53%
    15:00 +14°C° 0.5 mm 5 mps 740 mmHg 61%
    16:00 +12°C° 0.5 mm 5 mps 740 mmHg 69%
    17:00 +9°C° 0.5 mm 5 mps 741 mmHg 78%
    18:00 +8°C° 0.5 mm 5 mps 742 mmHg 79%
    19:00 +8°C° 0.5 mm 5 mps 742 mmHg 80%
    20:00 +7°C° 0.5 mm 5 mps 743 mmHg 81%
    21:00 +7°C° 0.3 mm 5 mps 744 mmHg 80%
    22:00 +7°C° 0.3 mm 5 mps 744 mmHg 79%
    23:00 +6°C° 0.3 mm 5 mps 745 mmHg 78%

    27 March, Wednesday

    Time Temperature Precipitation Wind Pressure Humidity
    00:00 +6°C° 0.2 mm 4 mps 745 mmHg 79%
    01:00 +7°C° 0.2 mm 3 mps 745 mmHg 79%
    02:00 +7°C° 0.2 mm 2 mps 746 mmHg 79%
    03:00 +5°C° 0.1 mm 3 mps 746 mmHg 78%
    04:00 +5°C° 0.1 mm 3 mps 746 mmHg 77%
    05:00 +5°C° 0.1 mm 3 mps 746 mmHg 76%
    06:00 +5°C° 0 mm 3 mps 747 mmHg 71%
    07:00 +5°C° 0 mm 3 mps 747 mmHg 66%
    08:00 +5°C° 0 mm 3 mps 748 mmHg 62%
    09:00 +7°C° 0 mm 3 mps 748 mmHg 56%
    10:00 +8°C° 0 mm 3 mps 748 mmHg 49%
    11:00 +9°C° 0 mm 3 mps 748 mmHg 43%
    12:00 +10°C° 0 mm 3 mps 748 mmHg 41%
    13:00 +11°C° 0 mm 3 mps 748 mmHg 38%
    14:00 +13°C° 0 mm 2 mps 748 mmHg 35%
    15:00 +13°C° 0 mm 2 mps 748 mmHg 36%
    16:00 +13°C° 0 mm 2 mps 748 mmHg 37%
    17:00 +13°C° 0 mm 2 mps 748 mmHg 39%
    18:00 +10°C° 0 mm 2 mps 748 mmHg 43%
    19:00 +9°C° 0 mm 2 mps 749 mmHg 46%
    20:00 +8°C° 0 mm 2 mps 749 mmHg 50%
    21:00 +7°C° 0 mm 2 mps 749 mmHg 54%
    22:00 +6°C° 0 mm 2 mps 749 mmHg 58%
    23:00 +5°C° 0 mm 2 mps 750 mmHg 62%

    28 March, Thursday

    Time Temperature Precipitation Wind Pressure Humidity
    00:00 +5°C° 0 mm 2 mps 750 mmHg 63%
    01:00 +5°C° 0 mm 2 mps 750 mmHg 63%
    02:00 +5°C° 0 mm 1 mps 750 mmHg 64%
    03:00 +4°C° 0 mm 2 mps 750 mmHg 64%
    04:00 +3°C° 0 mm 2 mps 750 mmHg 65%
    05:00 +3°C° 0 mm 2 mps 751 mmHg 66%
    06:00 +4°C° 0 mm 2 mps 751 mmHg 62%
    07:00 +3°C° 0 mm 3 mps 751 mmHg 59%
    08:00 +4°C° 0 mm 3 mps 751 mmHg 55%
    09:00 +7°C° 0 mm 3 mps 751 mmHg 50%
    10:00 +7°C° 0 mm 4 mps 751 mmHg 45%
    11:00 +8°C° 0 mm 4 mps 751 mmHg 40%
    12:00 +10°C° 0 mm 4 mps 751 mmHg 37%
    13:00 +10°C° 0 mm 4 mps 751 mmHg 33%
    14:00 +11°C° 0 mm 4 mps 750 mmHg 30%
    15:00 +10°C° 0 mm 4 mps 750 mmHg 32%
    16:00 +10°C° 0 mm 4 mps 750 mmHg 35%
    17:00 +10°C° 0 mm 4 mps 750 mmHg 37%
    18:00 +7°C° 0 mm 4 mps 750 mmHg 43%
    19:00 +7°C° 0 mm 3 mps 751 mmHg 49%
    20:00 +5°C° 0 mm 2 mps 751 mmHg 55%
    21:00 +5°C° 0 mm 2 mps 751 mmHg 58%
    22:00 +5°C° 0 mm 1 mps 751 mmHg 62%
    23:00 +4°C° 0 mm 1 mps 751 mmHg 65%
    Show more